Time,TemperatureF,DewpointF,PressureIn,WindDirection,WindDirectionDegrees,WindSpeedMPH,WindSpeedGustMPH,Humidity,HourlyPrecipIn,Conditions,Clouds,dailyrainin,SoftwareType,DateUTC
2013-01-15 00:00:00,40.8,11.0,30.32,ESE,106,0.0,3.0,29,0.00,,---,0.00,VWS V14.00,2013-01-15 08:00:00,
2013-01-15 00:01:00,41.9,8.7,30.31,ENE,61,0.0,4.0,25,0.00,,---,0.00,VWS V14.00,2013-01-15 08:01:00,
2013-01-15 00:08:00,42.2,10.0,30.31,ENE,60,0.0,2.0,27,0.00,,,0.00,weatherlink.com 1.10,2013-01-15 08:08:00,
2013-01-15 00:26:00,42.2,9.0,30.31,East,95,0.0,2.0,26,0.00,,,0.00,weatherlink.com 1.10,2013-01-15 08:26:00,
2013-01-15 00:30:00,39.5,13.5,30.33,SE,133,2.0,4.0,34,0.00,,---,0.00,VWS V14.00,2013-01-15 08:30:00,
2013-01-15 00:31:00,42.5,9.2,30.31,East,91,0.0,4.0,25,0.00,,---,0.00,VWS V14.00,2013-01-15 08:31:00,
2013-01-15 00:44:00,42.3,9.0,30.31,ESE,121,0.0,4.0,26,0.00,,,0.00,weatherlink.com 1.10,2013-01-15 08:44:00,
2013-01-15 01:00:00,40.9,11.0,30.32,ESE,108,0.0,2.0,29,0.00,,,0.00,weatherlink.com 1.10,2013-01-15 09:00:00,
2013-01-15 01:18:00,39.5,12.0,30.33,East,89,0.0,3.0,32,0.00,,,0.00,weatherlink.com 1.10,2013-01-15 09:18:00,
2013-01-15 01:30:00,38.3,13.7,30.35,SSE,154,0.0,4.0,36,0.00,,---,0.00,VWS V14.00,2013-01-15 09:30:00,
2013-01-15 01:31:00,39.5,13.5,30.33,SE,133,2.0,4.0,34,0.00,,---,0.00,VWS V14.00,2013-01-15 09:31:00,
2013-01-15 01:52:00,36.9,15.0,30.33,SE,126,3.0,7.0,40,0.00,,,0.00,weatherlink.com 1.10,2013-01-15 09:52:00,
2013-01-15 02:00:00,34.9,14.7,30.35,SE,124,2.0,4.0,43,0.00,,---,0.00,VWS V14.00,2013-01-15 10:00:00,
2013-01-15 02:01:00,37.4,12.9,30.34,ESE,102,0.0,7.0,36,0.00,,---,0.00,VWS V14.00,2013-01-15 10:01:00,
2013-01-15 02:10:00,38.1,11.0,30.34,ESE,119,0.0,2.0,33,0.00,,,0.00,weatherlink.com 1.10,2013-01-15 10:10:00,
2013-01-15 02:27:00,38.6,14.0,30.35,SSE,151,0.0,2.0,36,0.00,,,0.00,weatherlink.com 1.10,2013-01-15 10:27:00,
2013-01-15 02:30:00,36.1,13.0,30.35,ESE,123,0.0,5.0,38,0.00,,---,0.00,VWS V14.00,2013-01-15 10:30:00,
2013-01-15 02:31:00,38.3,13.7,30.35,SSE,154,0.0,4.0,36,0.00,,---,0.00,VWS V14.00,2013-01-15 10:31:00,
2013-01-15 02:44:00,36.0,16.0,30.35,SE,124,3.0,3.0,44,0.00,,,0.00,weatherlink.com 1.10,2013-01-15 10:44:00,
2013-01-15 03:00:00,35.6,16.9,30.35,ESE,121,1.0,3.0,46,0.00,,---,0.00,VWS V14.00,2013-01-15 11:00:00,
2013-01-15 03:01:00,34.9,14.7,30.35,SE,124,2.0,4.0,43,0.00,,---,0.00,VWS V14.00,2013-01-15 11:01:00,
2013-01-15 03:02:00,34.9,14.0,30.35,SE,129,1.0,4.0,43,0.00,,,0.00,weatherlink.com 1.10,2013-01-15 11:02:00,
2013-01-15 03:20:00,35.1,15.0,30.35,SE,129,3.0,5.0,43,0.00,,,0.00,weatherlink.com 1.10,2013-01-15 11:20:00,
2013-01-15 03:30:00,35.9,16.6,30.35,ESE,123,1.0,6.0,45,0.00,,---,0.00,VWS V14.00,2013-01-15 11:30:00,
2013-01-15 03:31:00,36.1,13.0,30.35,ESE,123,0.0,5.0,38,0.00,,---,0.00,VWS V14.00,2013-01-15 11:31:00,
2013-01-15 03:36:00,36.5,16.0,30.35,ESE,109,1.0,3.0,44,0.00,,,0.00,weatherlink.com 1.10,2013-01-15 11:36:00,
2013-01-15 03:54:00,35.0,14.0,30.35,SE,136,2.0,3.0,43,0.00,,,0.00,weatherlink.com 1.10,2013-01-15 11:54:00,
2013-01-15 04:00:00,36.8,16.4,30.35,ESE,113,0.0,4.0,43,0.00,,---,0.00,VWS V14.00,2013-01-15 12:00:00,
2013-01-15 04:01:00,35.6,16.9,30.35,ESE,121,1.0,3.0,46,0.00,,---,0.00,VWS V14.00,2013-01-15 12:01:00,
2013-01-15 04:11:00,34.8,15.0,30.35,ESE,112,1.0,5.0,45,0.00,,,0.00,weatherlink.com 1.10,2013-01-15 12:11:00,
2013-01-15 04:28:00,36.0,15.0,30.35,ESE,112,0.0,3.0,43,0.00,,,0.00,weatherlink.com 1.10,2013-01-15 12:28:00,
2013-01-15 04:30:00,36.2,14.8,30.36,SE,127,0.0,3.0,41,0.00,,---,0.00,VWS V14.00,2013-01-15 12:30:00,
2013-01-15 04:31:00,35.9,16.6,30.35,ESE,123,1.0,6.0,45,0.00,,---,0.00,VWS V14.00,2013-01-15 12:31:00,
2013-01-15 04:46:00,36.5,14.0,30.35,East,90,1.0,4.0,39,0.00,,,0.00,weatherlink.com 1.10,2013-01-15 12:46:00,
2013-01-15 05:00:00,36.0,15.1,30.37,SE,131,1.0,4.0,42,0.00,,---,0.00,VWS V14.00,2013-01-15 13:00:00,
2013-01-15 05:01:00,36.8,16.4,30.35,ESE,113,0.0,4.0,43,0.00,,---,0.00,VWS V14.00,2013-01-15 13:01:00,
2013-01-15 05:02:00,36.6,15.0,30.35,ENE,78,1.0,2.0,42,0.00,,,0.00,weatherlink.com 1.10,2013-01-15 13:02:00,
2013-01-15 05:20:00,37.1,13.0,30.35,ESE,112,0.0,2.0,38,0.00,,,0.00,weatherlink.com 1.10,2013-01-15 13:20:00,
2013-01-15 05:30:00,35.3,16.1,30.38,SE,128,2.0,3.0,45,0.00,,---,0.00,VWS V14.00,2013-01-15 13:30:00,
2013-01-15 05:31:00,36.2,14.8,30.36,SE,127,0.0,3.0,41,0.00,,---,0.00,VWS V14.00,2013-01-15 13:31:00,
2013-01-15 05:37:00,36.5,14.0,30.36,ESE,123,1.0,3.0,40,0.00,,,0.00,weatherlink.com 1.10,2013-01-15 13:37:00,
2013-01-15 05:55:00,36.8,14.0,30.36,SE,134,1.0,4.0,39,0.00,,,0.00,weatherlink.com 1.10,2013-01-15 13:55:00,
2013-01-15 06:00:00,33.7,16.6,30.38,East,92,0.0,5.0,49,0.00,,---,0.00,VWS V14.00,2013-01-15 14:00:00,
2013-01-15 06:01:00,36.0,15.1,30.37,SE,131,1.0,4.0,42,0.00,,---,0.00,VWS V14.00,2013-01-15 14:01:00,
2013-01-15 06:12:00,36.5,14.0,30.37,ESE,121,0.0,3.0,40,0.00,,,0.00,weatherlink.com 1.10,2013-01-15 14:12:00,
2013-01-15 06:29:00,35.4,15.0,30.37,SE,129,0.0,3.0,44,0.00,,,0.00,weatherlink.com 1.10,2013-01-15 14:29:00,
2013-01-15 06:30:00,37.2,17.3,30.39,ESE,123,2.0,4.0,44,0.00,,---,0.00,VWS V14.00,2013-01-15 14:30:00,
2013-01-15 06:31:00,35.3,16.1,30.38,SE,128,2.0,3.0,45,0.00,,---,0.00,VWS V14.00,2013-01-15 14:31:00,
2013-01-15 06:47:00,34.1,16.0,30.38,ESE,120,2.0,3.0,47,0.00,,,0.00,weatherlink.com 1.10,2013-01-15 14:47:00,
2013-01-15 07:00:00,38.1,18.1,30.40,ENE,78,1.0,6.0,44,0.00,,---,0.00,VWS V14.00,2013-01-15 15:00:00,
2013-01-15 07:01:00,33.7,16.6,30.38,East,92,0.0,5.0,49,0.00,,---,0.00,VWS V14.00,2013-01-15 15:01:00,
2013-01-15 07:03:00,34.0,16.0,30.38,SE,126,1.0,4.0,48,0.00,,,0.00,weatherlink.com 1.10,2013-01-15 15:03:00,
2013-01-15 07:21:00,38.1,14.0,30.38,SE,126,0.0,3.0,38,0.00,,,0.00,weatherlink.com 1.10,2013-01-15 15:21:00,
2013-01-15 07:30:00,43.4,20.1,30.42,ESE,123,2.0,4.0,39,0.00,,---,0.00,VWS V14.00,2013-01-15 15:30:00,
2013-01-15 07:31:00,37.2,17.3,30.39,ESE,123,2.0,4.0,44,0.00,,---,0.00,VWS V14.00,2013-01-15 15:31:00,
2013-01-15 07:39:00,35.5,17.0,30.39,SE,129,3.0,7.0,48,0.00,,,0.00,weatherlink.com 1.10,2013-01-15 15:39:00,
2013-01-15 07:55:00,37.4,18.0,30.40,SE,130,2.0,7.0,46,0.00,,,0.00,weatherlink.com 1.10,2013-01-15 15:55:00,
2013-01-15 08:00:00,47.8,18.6,30.43,East,82,2.0,2.0,31,0.00,,---,0.00,VWS V14.00,2013-01-15 16:00:00,
2013-01-15 08:01:00,38.1,18.1,30.40,ENE,78,1.0,6.0,44,0.00,,---,0.00,VWS V14.00,2013-01-15 16:01:00,
2013-01-15 08:13:00,41.8,18.0,30.40,ESE,114,2.0,4.0,38,0.00,,,0.00,weatherlink.com 1.10,2013-01-15 16:13:00,
2013-01-15 08:30:00,43.4,20.0,30.42,SE,132,1.0,4.0,39,0.00,,,0.00,weatherlink.com 1.10,2013-01-15 16:30:00,
2013-01-15 08:31:00,43.4,20.1,30.42,ESE,123,2.0,4.0,39,0.00,,---,0.00,VWS V14.00,2013-01-15 16:31:00,
2013-01-15 08:47:00,45.3,18.0,30.43,East,80,1.0,3.0,34,0.00,,,0.00,weatherlink.com 1.10,2013-01-15 16:47:00,
2013-01-15 09:00:00,51.1,22.3,30.43,West,275,4.0,5.0,32,0.00,,---,0.00,VWS V14.00,2013-01-15 17:00:00,
2013-01-15 09:02:00,47.8,18.6,30.43,East,82,2.0,2.0,31,0.00,,---,0.00,VWS V14.00,2013-01-15 17:02:00,
2013-01-15 09:07:00,48.5,19.0,30.43,East,88,0.0,3.0,31,0.00,,,0.00,weatherlink.com 1.10,2013-01-15 17:07:00,
2013-01-15 09:22:00,51.3,24.0,30.43,NW,317,2.0,3.0,34,0.00,,,0.00,weatherlink.com 1.10,2013-01-15 17:22:00,
2013-01-15 09:30:00,51.3,25.9,30.41,WNW,294,5.0,10.0,37,0.00,,---,0.00,VWS V14.00,2013-01-15 17:30:00,
2013-01-15 09:31:00,50.8,25.5,30.44,WNW,285,0.0,3.0,37,0.00,,---,0.00,VWS V14.00,2013-01-15 17:31:00,
2013-01-15 09:39:00,51.0,25.0,30.44,NW,313,2.0,3.0,36,0.00,,,0.00,weatherlink.com 1.10,2013-01-15 17:39:00,
2013-01-15 09:56:00,51.0,23.0,30.44,NW,304,3.0,5.0,34,0.00,,,0.00,weatherlink.com 1.10,2013-01-15 17:56:00,
2013-01-15 10:00:00,51.2,27.7,30.39,WSW,250,2.0,11.0,40,0.00,,---,0.00,VWS V14.00,2013-01-15 18:00:00,
2013-01-15 10:01:00,51.1,22.3,30.43,West,275,4.0,5.0,32,0.00,,---,0.00,VWS V14.00,2013-01-15 18:01:00,
2013-01-15 10:14:00,50.8,25.0,30.43,West,263,5.0,7.0,36,0.00,,,0.00,weatherlink.com 1.10,2013-01-15 18:14:00,
2013-01-15 10:30:00,51.3,29.0,30.37,West,275,9.0,12.0,42,0.00,,---,0.00,VWS V14.00,2013-01-15 18:30:00,
2013-01-15 10:31:00,51.3,25.9,30.41,WNW,294,5.0,10.0,37,0.00,,---,0.00,VWS V14.00,2013-01-15 18:31:00,
2013-01-15 10:48:00,51.0,26.0,30.40,WNW,296,5.0,10.0,38,0.00,,,0.00,weatherlink.com 1.10,2013-01-15 18:48:00,
2013-01-15 11:00:00,52.2,28.0,30.35,West,275,6.0,12.0,39,0.00,,---,0.00,VWS V14.00,2013-01-15 19:00:00,
2013-01-15 11:01:00,51.2,27.7,30.39,WSW,250,2.0,11.0,40,0.00,,---,0.00,VWS V14.00,2013-01-15 19:01:00,
2013-01-15 11:06:00,51.4,28.0,30.39,SW,218,3.0,11.0,41,0.00,,,0.00,weatherlink.com 1.10,2013-01-15 19:06:00,
2013-01-15 11:23:00,51.1,27.0,30.39,NW,311,9.0,10.0,39,0.00,,,0.00,weatherlink.com 1.10,2013-01-15 19:23:00,
2013-01-15 11:30:00,53.7,26.0,30.34,West,277,6.0,11.0,34,0.00,,---,0.00,VWS V14.00,2013-01-15 19:30:00,
2013-01-15 11:31:00,51.3,29.0,30.37,West,275,9.0,12.0,42,0.00,,---,0.00,VWS V14.00,2013-01-15 19:31:00,
2013-01-15 11:40:00,51.3,30.0,30.37,WNW,290,5.0,12.0,45,0.00,,,0.00,weatherlink.com 1.10,2013-01-15 19:40:00,
2013-01-15 11:57:00,52.3,28.0,30.36,WNW,300,7.0,11.0,39,0.00,,,0.00,weatherlink.com 1.10,2013-01-15 19:57:00,
2013-01-15 12:00:00,53.9,25.5,30.33,West,277,11.0,13.0,33,0.00,,---,0.00,VWS V14.00,2013-01-15 20:00:00,
2013-01-15 12:01:00,52.2,28.0,30.35,West,275,6.0,12.0,39,0.00,,---,0.00,VWS V14.00,2013-01-15 20:01:00,
2013-01-15 12:15:00,52.4,27.0,30.35,WNW,288,5.0,11.0,38,0.00,,,0.00,weatherlink.com 1.10,2013-01-15 20:15:00,
2013-01-15 12:30:00,54.9,23.3,30.32,WNW,292,9.0,13.0,29,0.00,,---,0.00,VWS V14.00,2013-01-15 20:30:00,
2013-01-15 12:31:00,53.7,26.0,30.34,West,277,6.0,11.0,34,0.00,,---,0.00,VWS V14.00,2013-01-15 20:31:00,
2013-01-15 12:32:00,53.6,26.0,30.34,West,279,6.0,10.0,35,0.00,,,0.00,weatherlink.com 1.10,2013-01-15 20:32:00,
2013-01-15 12:50:00,54.2,26.0,30.33,NW,304,6.0,12.0,34,0.00,,,0.00,weatherlink.com 1.10,2013-01-15 20:50:00,
2013-01-15 13:00:00,56.1,21.7,30.31,WSW,245,7.0,14.0,26,0.00,,---,0.00,VWS V14.00,2013-01-15 21:00:00,
2013-01-15 13:01:00,53.9,25.5,30.33,West,277,11.0,13.0,33,0.00,,---,0.00,VWS V14.00,2013-01-15 21:01:00,
2013-01-15 13:08:00,54.3,25.0,30.33,NW,319,4.0,13.0,32,0.00,,,0.00,weatherlink.com 1.10,2013-01-15 21:08:00,
2013-01-15 13:24:00,55.0,23.0,30.32,WNW,287,12.0,13.0,29,0.00,,,0.00,weatherlink.com 1.10,2013-01-15 21:24:00,
2013-01-15 13:30:00,55.9,22.4,30.32,WNW,300,9.0,16.0,27,0.00,,---,0.00,VWS V14.00,2013-01-15 21:30:00,
2013-01-15 13:31:00,54.9,23.3,30.32,WNW,292,9.0,13.0,29,0.00,,---,0.00,VWS V14.00,2013-01-15 21:31:00,
2013-01-15 13:42:00,56.0,23.0,30.32,NW,313,11.0,13.0,28,0.00,,,0.00,weatherlink.com 1.10,2013-01-15 21:42:00,
2013-01-15 13:59:00,56.5,22.0,30.32,WNW,300,8.0,13.0,26,0.00,,,0.00,weatherlink.com 1.10,2013-01-15 21:59:00,
2013-01-15 14:00:00,53.9,31.9,30.32,NNW,333,10.0,15.0,43,0.00,,---,0.00,VWS V14.00,2013-01-15 22:00:00,
2013-01-15 14:17:00,54.7,22.0,30.30,WNW,290,13.0,16.0,28,0.00,,,0.00,weatherlink.com 1.10,2013-01-15 22:17:00,
2013-01-15 14:30:00,53.5,30.4,30.33,West,267,9.0,16.0,41,0.00,,---,0.00,VWS V14.00,2013-01-15 22:30:00,
2013-01-15 14:31:00,55.9,22.4,30.32,WNW,300,9.0,16.0,27,0.00,,---,0.00,VWS V14.00,2013-01-15 22:31:00,
2013-01-15 14:33:00,55.7,22.0,30.32,WNW,293,7.0,14.0,27,0.00,,,0.00,weatherlink.com 1.10,2013-01-15 22:33:00,
2013-01-15 14:51:00,53.8,31.0,30.32,WNW,290,6.0,15.0,42,0.00,,,0.00,weatherlink.com 1.10,2013-01-15 22:51:00,
2013-01-15 15:00:00,53.2,31.9,30.33,NW,314,9.0,13.0,44,0.00,,---,0.00,VWS V14.00,2013-01-15 23:00:00,
2013-01-15 15:01:00,53.9,31.9,30.32,NNW,333,10.0,15.0,43,0.00,,---,0.00,VWS V14.00,2013-01-15 23:01:00,
2013-01-15 15:09:00,53.6,31.0,30.32,WNW,285,5.0,15.0,43,0.00,,,0.00,weatherlink.com 1.10,2013-01-15 23:09:00,
2013-01-15 15:25:00,53.7,31.0,30.33,West,273,9.0,16.0,43,0.00,,,0.00,weatherlink.com 1.10,2013-01-15 23:25:00,
2013-01-15 15:30:00,53.2,33.0,30.33,West,272,7.0,13.0,46,0.00,,---,0.00,VWS V14.00,2013-01-15 23:30:00,
2013-01-15 15:31:00,53.5,30.4,30.33,West,267,9.0,16.0,41,0.00,,---,0.00,VWS V14.00,2013-01-15 23:31:00,
2013-01-15 15:43:00,53.7,30.0,30.33,West,278,5.0,10.0,41,0.00,,,0.00,weatherlink.com 1.10,2013-01-15 23:43:00,
2013-01-15 16:00:00,52.1,34.5,30.34,WNW,282,6.0,10.0,51,0.00,,---,0.00,VWS V14.00,2013-01-16 00:00:00,
2013-01-15 16:01:00,53.2,32.0,30.33,NW,305,7.0,13.0,44,0.00,,,0.00,weatherlink.com 1.10,2013-01-16 00:01:00,
2013-01-15 16:18:00,53.5,32.0,30.33,West,265,10.0,11.0,45,0.00,,,0.00,weatherlink.com 1.10,2013-01-16 00:18:00,
2013-01-15 16:30:00,51.6,30.4,30.33,NW,309,1.0,10.0,44,0.00,,---,0.00,VWS V14.00,2013-01-16 00:30:00,
2013-01-15 16:31:00,53.2,33.0,30.33,West,272,7.0,13.0,46,0.00,,---,0.00,VWS V14.00,2013-01-16 00:31:00,
2013-01-15 16:35:00,53.1,33.0,30.33,West,265,2.0,10.0,47,0.00,,,0.00,weatherlink.com 1.10,2013-01-16 00:35:00,
2013-01-15 16:53:00,52.4,34.0,30.34,West,279,7.0,9.0,50,0.00,,,0.00,weatherlink.com 1.10,2013-01-16 00:53:00,
2013-01-15 17:00:00,50.5,31.6,30.35,SE,146,0.0,2.0,48,0.00,,---,0.00,VWS V14.00,2013-01-16 01:00:00,
2013-01-15 17:01:00,52.1,34.5,30.34,WNW,282,6.0,10.0,51,0.00,,---,0.00,VWS V14.00,2013-01-16 01:01:00,
2013-01-15 17:11:00,51.7,34.0,30.34,NNW,333,3.0,11.0,52,0.00,,,0.00,weatherlink.com 1.10,2013-01-16 01:11:00,
2013-01-15 17:27:00,51.6,31.0,30.34,NW,309,0.0,4.0,46,0.00,,,0.00,weatherlink.com 1.10,2013-01-16 01:27:00,
2013-01-15 17:30:00,49.7,31.3,30.35,South,169,1.0,2.0,49,0.00,,---,0.00,VWS V14.00,2013-01-16 01:30:00,
2013-01-15 17:31:00,51.6,30.4,30.33,NW,309,1.0,10.0,44,0.00,,---,0.00,VWS V14.00,2013-01-16 01:31:00,
2013-01-15 17:45:00,51.5,31.0,30.34,NW,310,0.0,0.0,45,0.00,,,0.00,weatherlink.com 1.10,2013-01-16 01:45:00,
2013-01-15 18:00:00,48.7,30.4,30.35,NW,307,2.0,3.0,49,0.00,,---,0.00,VWS V14.00,2013-01-16 02:00:00,
2013-01-15 18:01:00,50.5,31.6,30.35,SE,146,0.0,2.0,48,0.00,,---,0.00,VWS V14.00,2013-01-16 02:01:00,
2013-01-15 18:18:00,49.9,31.0,30.35,SSE,149,0.0,0.0,49,0.00,,,0.00,weatherlink.com 1.10,2013-01-16 02:18:00,
2013-01-15 18:30:00,47.8,29.6,30.34,WNW,303,1.0,5.0,49,0.00,,---,0.00,VWS V14.00,2013-01-16 02:30:00,
2013-01-15 18:31:00,49.7,31.3,30.35,South,169,1.0,2.0,49,0.00,,---,0.00,VWS V14.00,2013-01-16 02:31:00,
2013-01-15 18:36:00,49.5,31.0,30.35,WSW,254,2.0,4.0,50,0.00,,,0.00,weatherlink.com 1.10,2013-01-16 02:36:00,
2013-01-15 18:54:00,48.2,30.0,30.35,WNW,302,2.0,3.0,49,0.00,,,0.00,weatherlink.com 1.10,2013-01-16 02:54:00,
2013-01-15 19:00:00,48.8,29.0,30.35,NNE,30,2.0,3.0,46,0.00,,---,0.00,VWS V14.00,2013-01-16 03:00:00,
2013-01-15 19:01:00,48.7,30.4,30.35,NW,307,2.0,3.0,49,0.00,,---,0.00,VWS V14.00,2013-01-16 03:01:00,
2013-01-15 19:10:00,47.9,29.0,30.35,NW,309,2.0,3.0,49,0.00,,,0.00,weatherlink.com 1.10,2013-01-16 03:10:00,
2013-01-15 19:28:00,47.9,29.0,30.35,NW,319,2.0,5.0,49,0.00,,,0.00,weatherlink.com 1.10,2013-01-16 03:28:00,
2013-01-15 19:30:00,47.0,29.8,30.35,WSW,250,0.0,3.0,51,0.00,,---,0.00,VWS V14.00,2013-01-16 03:30:00,
2013-01-15 19:31:00,47.8,29.6,30.34,WNW,303,1.0,5.0,49,0.00,,---,0.00,VWS V14.00,2013-01-16 03:31:00,
2013-01-15 19:45:00,48.2,29.0,30.35,ENE,63,2.0,3.0,47,0.00,,,0.00,weatherlink.com 1.10,2013-01-16 03:45:00,
2013-01-15 20:00:00,45.3,29.2,30.34,NNE,30,0.0,3.0,53,0.00,,---,0.00,VWS V14.00,2013-01-16 04:00:00,
2013-01-15 20:01:00,48.8,29.0,30.35,NNE,30,2.0,3.0,46,0.00,,---,0.00,VWS V14.00,2013-01-16 04:01:00,
2013-01-15 20:02:00,48.8,29.0,30.35,NNE,27,2.0,3.0,46,0.00,,,0.00,weatherlink.com 1.10,2013-01-16 04:02:00,
2013-01-15 20:19:00,47.7,29.0,30.35,SE,141,0.0,3.0,48,0.00,,,0.00,weatherlink.com 1.10,2013-01-16 04:19:00,
2013-01-15 20:30:00,45.6,28.0,30.34,NE,43,0.0,3.0,50,0.00,,---,0.00,VWS V14.00,2013-01-16 04:30:00,
2013-01-15 20:31:00,47.0,29.8,30.35,WSW,250,0.0,3.0,51,0.00,,---,0.00,VWS V14.00,2013-01-16 04:31:00,
2013-01-15 20:37:00,46.8,30.0,30.35,WSW,256,0.0,0.0,52,0.00,,,0.00,weatherlink.com 1.10,2013-01-16 04:37:00,
2013-01-15 20:53:00,45.7,30.0,30.35,NE,55,1.0,3.0,54,0.00,,,0.00,weatherlink.com 1.10,2013-01-16 04:53:00,
2013-01-15 21:00:00,46.1,29.0,30.34,NNE,24,4.0,6.0,51,0.00,,---,0.00,VWS V14.00,2013-01-16 05:00:00,
2013-01-15 21:01:00,45.3,29.2,30.34,NNE,30,0.0,3.0,53,0.00,,---,0.00,VWS V14.00,2013-01-16 05:01:00,
2013-01-15 21:11:00,45.3,28.0,30.34,ESE,118,3.0,3.0,52,0.00,,,0.00,weatherlink.com 1.10,2013-01-16 05:11:00,
2013-01-15 21:28:00,45.5,28.0,30.34,NE,55,0.0,3.0,50,0.00,,,0.00,weatherlink.com 1.10,2013-01-16 05:28:00,
2013-01-15 21:30:00,44.2,29.1,30.34,East,84,1.0,5.0,55,0.00,,---,0.00,VWS V14.00,2013-01-16 05:30:00,
2013-01-15 21:31:00,45.6,28.0,30.34,NE,43,0.0,3.0,50,0.00,,---,0.00,VWS V14.00,2013-01-16 05:31:00,
2013-01-15 21:46:00,46.0,28.0,30.34,ENE,71,0.0,3.0,50,0.00,,,0.00,weatherlink.com 1.10,2013-01-16 05:46:00,
2013-01-15 22:00:00,43.0,29.2,30.33,East,98,1.0,4.0,58,0.00,,---,0.00,VWS V14.00,2013-01-16 06:00:00,
2013-01-15 22:01:00,46.1,29.0,30.34,NNE,24,4.0,6.0,51,0.00,,---,0.00,VWS V14.00,2013-01-16 06:01:00,
2013-01-15 22:02:00,46.0,29.0,30.34,NE,34,2.0,7.0,51,0.00,,,0.00,weatherlink.com 1.10,2013-01-16 06:02:00,
2013-01-15 22:20:00,47.1,29.0,30.34,NE,38,2.0,5.0,50,0.00,,,0.00,weatherlink.com 1.10,2013-01-16 06:20:00,
2013-01-15 22:30:00,43.2,29.0,30.33,ENE,70,2.0,6.0,57,0.00,,---,0.00,VWS V14.00,2013-01-16 06:30:00,
2013-01-15 22:31:00,44.2,29.1,30.34,East,84,1.0,5.0,55,0.00,,---,0.00,VWS V14.00,2013-01-16 06:31:00,
2013-01-15 22:38:00,43.3,29.0,30.34,East,84,1.0,3.0,58,0.00,,,0.00,weatherlink.com 1.10,2013-01-16 06:38:00,
2013-01-15 22:54:00,43.6,29.0,30.33,ESE,112,0.0,4.0,57,0.00,,,0.00,weatherlink.com 1.10,2013-01-16 06:54:00,
2013-01-15 23:00:00,43.3,28.7,30.33,East,101,2.0,5.0,56,0.00,,---,0.00,VWS V14.00,2013-01-16 07:00:00,
2013-01-15 23:01:00,43.0,29.2,30.33,East,98,1.0,4.0,58,0.00,,---,0.00,VWS V14.00,2013-01-16 07:01:00,
2013-01-15 23:12:00,43.1,29.0,30.33,ENE,73,1.0,3.0,57,0.00,,,0.00,weatherlink.com 1.10,2013-01-16 07:12:00,
2013-01-15 23:29:00,43.2,29.0,30.33,ENE,66,1.0,6.0,57,0.00,,,0.00,weatherlink.com 1.10,2013-01-16 07:29:00,
2013-01-15 23:30:00,40.9,28.9,30.33,East,85,2.0,5.0,62,0.00,,---,0.00,VWS V14.00,2013-01-16 07:30:00,
2013-01-15 23:31:00,43.2,29.0,30.33,ENE,70,2.0,6.0,57,0.00,,---,0.00,VWS V14.00,2013-01-16 07:31:00,
2013-01-15 23:46:00,43.2,28.0,30.33,ENE,60,4.0,5.0,56,0.00,,,0.00,weatherlink.com 1.10,2013-01-16 07:46:00,